CAPE
0 0 0 0 0 0 0 0 0 0 0 0 0 0 0 0 0 0 699 1020 994 1186 1519 1517 1650 1813 1818 1775 1724 1767 1906 1953 1979 2062 2113 2104 2134 2207 2264 2277 2301 2539 2539 2047 1757 1758 1726 1713 1494
0 0 0 0 0 0 0 0 0 0 0 0 0 0 0 0 576 1141 1158 1112 1091 1303 1518 1591 1678 1839 1895 1837 1828 1895 2111 2098 2047 2079 2194 2213 2213 2309 2352 2311 2303 2525 2485 2119 1852 1849 1755 1750 1487
0 0 0 0 0 0 0 0 0 0 0 0 0 0 0 0 866 1169 1046 1109 1157 1394 1603 1667 1681 1811 1929 1899 1903 1941 2082 2054 2029 2070 2242 2296 2289 2383 2468 2205 2303 2544 2528 2215 1859 1801 1742 1537 1366
0 0 0 0 0 0 0 0 0 0 0 0 0 0 0 83 1208 1057 1264 1295 1249 1388 1529 1607 1650 1781 1892 1947 1966 1993 1963 1918 1891 2022 2249 2394 2422 2417 2391 1991 2417 2602 2544 2467 2194 1870 1574 1174 1126
0 0 0 0 0 0 0 0 0 0 0 0 0 0 0 381 759 1156 1253 1281 1210 1308 1326 1497 1656 1816 1957 2049 2013 1967 1839 1809 1887 2036 2194 2347 2426 2367 2159 1971 2173 2396 2481 2266 2279 1847 1359 1135 1087
0 0 0 0 0 0 0 0 0 0 0 0 0 0 0 181 1241 1049 987 937 1075 1129 1242 1383 1543 1744 1929 2074 1978 1895 1777 1768 1858 1983 2063 2277 2276 2156 1978 1968 2080 1935 1798 1944 1794 1468 1292 1167 1132
0 0 0 0 0 0 0 0 0 0 0 0 0 0 0 639 1019 1085 653 351 779 837 1081 1214 1496 1624 1668 1760 1809 1850 1776 1742 1805 1936 1985 2072 2021 1944 1834 1895 1849 1646 1546 1676 1601 1390 1232 1178 1083
0 0 0 0 0 0 0 0 0 0 0 0 0 0 0 159 243 1171 1124 931 718 659 799 994 1288 1411 1341 1364 1491 1639 1735 1709 1784 1897 1896 1968 1832 1733 1682 1671 1579 1442 1369 1459 1535 1337 1203 1157 941
0 0 0 0 0 0 0 0 0 0 0 0 0 0 0 0 933 1348 1447 1304 975 770 679 840 998 1040 939 977 1309 1588 1723 1638 1428 1655 1535 1692 1431 1363 1465 1216 1231 1171 1058 1090 1353 1184 1087 993 612
0 0 0 0 0 0 0 0 0 0 0 0 0 0 0 0 388 1374 1550 1537 1308 1036 770 688 837 797 659 1079 1243 1349 1547 1114 1036 1233 1287 1388 1241 1044 1004 925 971 757 670 813 798 729 585 537 283
0 0 0 0 0 0 0 0 0 0 0 0 0 0 0 0 0 90 1424 1618 1606 1384 982 806 826 705 727 1023 1079 1221 1411 1104 888 1125 1263 1107 935 811 671 608 658 374 400 312 376 367 277 363 294
0 0 0 0 0 0 0 0 0 0 0 0 0 0 0 0 0 0 0 563 1656 1667 1292 1011 828 805 762 831 904 1062 1263 955 1157 818 782 900 739 479 383 523 421 179 115 81 129 152 275 421 332
0 0 0 0 0 0 0 0 0 0 0 0 0 0 0 0 0 0 0 0 1033 1617 1723 1350 964 853 839 797 767 792 830 837 867 977 621 645 747 540 270 238 229 223 82 40 92 46 248 391 383
0 0 0 0 0 0 0 0 0 0 0 0 0 0 0 0 0 0 0 0 13 1391 1870 1879 1468 1109 1015 912 679 658 775 816 695 814 717 486 588 389 257 81 63 30 67 47 58 28 51 167 157
0 0 0 0 0 0 0 0 0 0 0 0 0 0 0 0 0 0 0 0 0 27 1759 2029 1999 1654 1388 1180 761 659 656 695 713 767 475 378 415 288 300 220 93 12 28 7 5 1 2 30 94
0 0 0 0 0 0 0 0 0 0 0 0 0 0 0 0 0 0 0 0 0 0 343 2110 2241 2055 1817 1446 1112 875 752 736 658 643 553 282 407 345 298 436 356 24 81 68 45 27 11 13 63
0 0 0 0 0 0 0 0 0 0 0 0 0 0 0 0 0 0 0 0 0 0 0 1483 2210 2030 2026 1714 1263 1032 988 920 796 690 616 447 378 349 377 337 252 166 182 187 135 44 50 31 12
0 0 0 0 0 0 0 0 0 0 0 0 0 0 0 0 0 0 0 0 0 0 0 33 1892 2065 2047 1881 1305 1066 1058 1082 873 779 660 447 426 334 235 152 137 145 308 232 168 84 18 29 11
0 0 0 0 0 0 0 0 0 0 0 0 0 0 0 0 0 0 0 0 0 0 0 0 1408 1931 1788 1674 1475 1263 1229 1235 873 886 617 498 452 267 214 58 106 254 241 129 162 74 9 1 0
0 0 0 0 0 0 0 0 0 0 0 0 0 0 0 0 0 0 0 0 0 0 0 0 1005 1777 1801 1718 1666 1454 1269 1127 1036 622 422 471 303 259 186 55 141 141 93 20 40 16 1 2 1
0 0 0 0 0 0 0 0 0 0 0 0 0 0 0 0 0 0 0 0 0 0 0 0 816 1709 1879 1783 1539 418 111 120 241 220 309 307 283 282 393 131 140 129 98 24 2 3 0 0 2
0 0 0 0 0 0 0 0 0 0 0 0 0 0 0 0 0 0 0 0 0 0 0 0 570 1719 1875 1817 1502 1039 1048 871 730 742 594 145 138 121 192 146 110 112 77 19 2 0 0 0 0
0 0 0 0 0 0 0 0 0 0 0 0 0 0 0 0 0 0 0 0 0 0 0 0 108 1505 1778 1847 1565 1136 1051 781 463 418 39 264 120 86 92 116 79 86 32 5 5 2 2 0 0
0 0 0 0 0 0 0 0 0 0 0 0 0 0 0 0 0 0 0 0 0 0 0 0 249 1391 1753 1875 1581 1183 999 254 145 172 76 44 114 167 130 94 102 90 37 5 2 1 2 1 0
0 0 0 0 0 0 0 0 0 0 0 0 1 0 0 0 0 1 0 0 0 0 0 1 12 1647 1799 1745 1520 961 640 198 178 129 116 21 20 49 130 66 57 20 0 1 0 0 0 1 0
0 0 0 0 0 0 0 0 0 0 0 0 0 0 0 0 0 1 0 0 0 0 3 0 1 1535 1569 1438 1083 562 130 195 142 63 45 44 31 37 16 35 8 3 0 1 0 9 1 3 0
0 0 0 0 0 0 0 0 0 0 0 0 0 0 0 0 0 1 0 0 0 1 6 3 3 1018 1143 1172 393 182 144 103 77 17 19 13 20 45 41 15 1 0 1 2 6 9 13 15 5
0 0 5 2 2 0 0 0 0 0 1 2 2 0 0 0 0 1 1 0 1 2 4 9 4 3 383 378 300 183 101 53 17 22 18 0 1 0 0 0 0 0 0 0 0 0 1 12 31
0 0 3 12 23 56 0 0 10 5 8 7 3 1 0 1 1 1 1 1 1 2 7 10 6 3 3 33 126 38 7 0 0 1 0 0 0 0 0 0 0 0 0 0 0 4 5 18 12
0 0 28 25 0 0 0 0 6 1 3 5 5 4 0 0 1 2 2 2 1 1 1 7 2 5 7 2 9 0 0 0 0 0 3 0 0 0 0 0 0 0 0 0 0 4 1 1 1
CIN
0 0 0 0 0 0 0 0 0 0 0 0 0 0 0 0 0 0 -648 -558 -632 -526 -380 -345 -298 -236 -213 -209 -224 -253 -180 -117 -86 -61 -36 -38 -31 -29 -14 -7 -3 -0 0 0 0 -0 -4 -6 -19
0 0 0 0 0 0 0 0 0 0 0 0 0 0 0 0 -238 -377 -398 -574 -575 -516 -408 -358 -339 -283 -242 -213 -181 -203 -158 -109 -82 -50 -29 -23 -9 -14 -6 -4 -2 -0 0 0 -0 0 -6 -13 -26
0 0 0 0 0 0 0 0 0 0 0 0 0 0 0 0 -250 -321 -458 -586 -550 -460 -398 -391 -361 -313 -267 -227 -177 -169 -143 -133 -100 -61 -28 -17 -3 -3 0 -8 -3 -1 0 0 -0 -5 -9 -21 -32
0 0 0 0 0 0 0 0 0 0 0 0 0 0 0 -293 -236 -330 -579 -575 -536 -472 -404 -363 -355 -316 -275 -227 -169 -139 -137 -144 -116 -69 -29 -8 0 0 -0 -19 -4 -1 0 0 0 -10 -22 -48 -47
0 0 0 0 0 0 0 0 0 0 0 0 0 0 0 -227 -330 -497 -561 -546 -551 -487 -465 -396 -347 -297 -258 -212 -170 -134 -133 -131 -109 -56 -28 -10 -0 -0 -8 -15 -11 -2 -1 -2 -0 -12 -36 -46 -36
0 0 0 0 0 0 0 0 0 0 0 0 0 0 0 -153 -315 -447 -538 -570 -535 -540 -479 -415 -355 -291 -233 -187 -189 -157 -143 -123 -103 -61 -33 -13 -9 -9 -16 -12 -10 -14 -14 -11 -16 -31 -33 -44 -39
0 0 0 0 0 0 0 0 0 0 0 0 0 0 0 -240 -314 -426 -523 -655 -589 -566 -520 -471 -380 -326 -290 -227 -190 -172 -135 -105 -85 -66 -43 -29 -22 -14 -19 -13 -14 -21 -30 -23 -37 -53 -62 -45 -52
0 0 0 0 0 0 0 0 0 0 0 0 0 0 0 -214 -448 -428 -458 -504 -548 -578 -537 -480 -405 -367 -350 -308 -249 -212 -146 -99 -70 -63 -59 -38 -35 -25 -22 -14 -20 -30 -40 -39 -37 -52 -70 -50 -59
0 0 0 0 0 0 0 0 0 0 0 0 0 0 0 0 -385 -358 -336 -359 -430 -479 -518 -472 -420 -391 -429 -398 -284 -201 -142 -113 -130 -87 -100 -64 -69 -65 -43 -64 -49 -58 -61 -63 -49 -56 -60 -54 -80
0 0 0 0 0 0 0 0 0 0 0 0 0 0 0 0 -296 -231 -250 -275 -310 -387 -456 -465 -434 -436 -446 -340 -298 -241 -171 -230 -207 -138 -124 -114 -106 -119 -110 -103 -79 -105 -110 -91 -88 -81 -84 -90 -149
0 0 0 0 0 0 0 0 0 0 0 0 0 0 0 0 0 -33 -202 -239 -275 -343 -385 -447 -439 -464 -431 -340 -312 -259 -192 -231 -260 -164 -138 -158 -158 -153 -162 -147 -108 -176 -159 -160 -142 -117 -121 -125 -137
0 0 0 0 0 0 0 0 0 0 0 0 0 0 0 0 0 0 0 -239 -219 -268 -354 -408 -436 -433 -433 -382 -354 -300 -236 -268 -200 -237 -233 -187 -189 -223 -236 -165 -159 -224 -225 -238 -198 -168 -136 -99 -104
0 0 0 0 0 0 0 0 0 0 0 0 0 0 0 0 0 0 0 0 -174 -180 -236 -336 -393 -416 -418 -400 -364 -339 -327 -312 -269 -217 -268 -254 -200 -214 -270 -238 -214 -210 -242 -296 -221 -197 -111 -79 -67
0 0 0 0 0 0 0 0 0 0 0 0 0 0 0 0 0 0 0 0 -17 -170 -186 -228 -296 -357 -350 -349 -377 -363 -323 -333 -323 -279 -253 -291 -254 -275 -291 -301 -303 -324 -272 -283 -240 -212 -159 -121 -84
0 0 0 0 0 0 0 0 0 0 0 0 0 0 0 0 0 0 0 0 0 -158 -149 -203 -225 -258 -294 -298 -346 -350 -312 -332 -323 -318 -337 -338 -307 -311 -280 -255 -289 -339 -308 -346 -179 -17 -169 -133 -61
0 0 0 0 0 0 0 0 0 0 0 0 0 0 0 0 0 0 0 0 0 0 -197 -170 -192 -193 -228 -258 -286 -320 -296 -290 -331 -337 -327 -381 -305 -290 -276 -196 -201 -344 -240 -206 -211 -165 -162 -134 -35
0 0 0 0 0 0 0 0 0 0 0 0 0 0 0 0 0 0 0 0 0 0 0 -197 -178 -202 -206 -229 -249 -291 -279 -254 -266 -298 -303 -333 -321 -293 -253 -236 -225 -210 -183 -138 -133 -122 -92 -86 -73
0 0 0 0 0 0 0 0 0 0 0 0 0 0 0 0 0 0 0 0 0 0 0 -399 -179 -188 -219 -216 -237 -236 -229 -190 -243 -246 -269 -327 -301 -305 -313 -309 -275 -245 -138 -111 -106 -93 -112 -66 -81
0 0 0 0 0 0 0 0 0 0 0 0 0 0 0 0 0 0 0 0 0 0 0 0 -199 -169 -171 -175 -188 -188 -188 -178 -227 -200 -263 -306 -294 -338 -312 -375 -324 -211 -190 -156 -112 -102 -138 -0 0
0 0 0 0 0 0 0 0 0 0 0 0 0 0 0 0 0 0 0 0 0 0 0 0 -282 -188 -173 -187 -215 -220 -240 -214 -219 -255 -265 -273 -339 -325 -315 -370 -301 -272 -246 -213 -168 -157 -11 -35 -0
0 0 0 0 0 0 0 0 0 0 0 0 0 0 0 0 0 0 0 0 0 0 0 0 -290 -215 -186 -194 -201 -353 -396 -361 -328 -328 -284 -322 -340 -300 -235 -319 -301 -263 -212 -223 -0 -70 -0 0 0
0 0 0 0 0 0 0 0 0 0 0 0 0 0 0 0 0 0 0 0 0 0 0 0 -337 -207 -172 -165 -174 -237 -244 -218 -266 -277 -257 -353 -379 -363 -320 -310 -297 -243 -215 -222 -16 -0 0 -0 -0
0 0 0 0 0 0 0 0 0 0 0 0 0 0 0 0 0 0 0 0 0 0 0 -0 -528 -222 -216 -164 -175 -247 -228 -296 -387 -332 -426 -243 -336 -362 -365 -319 -302 -246 -222 -86 -255 -0 -0 0 0
0 0 0 0 0 0 0 0 0 0 0 0 0 0 0 0 0 0 0 0 0 0 0 0 -556 -178 -172 -161 -172 -200 -249 -414 -460 -406 -400 -348 -320 -311 -316 -314 -266 -238 -212 -153 -74 -29 -0 -0 0
0 0 0 0 0 0 0 0 0 0 0 0 0 0 0 0 0 0 0 0 0 0 0 0 -181 -121 -130 -138 -127 -213 -268 -449 -492 -470 -381 -380 -455 -444 -314 -309 -300 -286 0 -1 -0 -0 -0 0 -0
0 0 0 -4 0 0 0 0 0 0 0 0 0 0 0 0 0 0 0 0 0 0 0 0 0 -83 -103 -156 -179 -235 -399 -401 -428 -446 -447 -392 -401 -435 -447 -348 -357 -93 -0 -25 0 -163 -22 -25 0
0 0 0 -2 0 0 0 0 0 0 0 0 0 0 0 0 0 0 0 0 0 0 0 0 0 -112 -115 -106 -226 -380 -364 -358 -391 -457 -495 -436 -408 -351 -330 -352 -135 0 -3 -42 -60 -26 -14 -6 -10
0 0 -2 -6 -8 -4 0 0 0 0 -0 -0 0 0 0 0 0 0 0 0 0 0 0 0 0 0 -153 -169 -205 -221 -252 -318 -417 -440 -441 0 -162 0 0 0 0 0 0 0 0 0 0 -3 -7
0 0 -2 -4 -0 -1 0 0 -42 0 0 0 0 0 0 0 0 0 0 0 0 0 0 0 0 0 0 -301 -165 -247 -212 0 0 -114 0 0 0 0 0 0 0 0 0 0 0 0 -0 -36 -24
0 -1 -1 -0 0 0 0 -0 0 0 0 0 0 0 -0 0 0 0 0 0 0 0 0 0 0 0 0 0 -166 -13 -32 -7 -64 0 -331 0 0 0 0 0 0 0 -1 0 0 0 0 0 -0
Wind_Speed
2 2 2 5 5 6 5 9 4 5 9 3 6 5 5 3 5 7 5 6 12 15 13 14 15 13 11 11 12 17 17 17 16 15 13 13 13 15 16 15 13 14 15 15 14 14 13 13 11
2 2 5 3 6 2 7 6 13 5 8 12 11 5 5 4 0 3 5 5 14 17 14 14 17 16 15 12 10 14 18 17 17 16 15 14 13 14 14 14 13 14 15 15 14 13 13 12 11
2 3 5 5 5 9 7 7 2 3 8 5 7 3 4 4 2 9 5 13 10 10 12 14 18 17 16 14 12 12 15 16 16 16 16 15 14 14 14 13 13 15 15 15 14 13 13 12 11
1 4 5 5 10 8 8 3 4 9 9 3 3 12 7 7 8 8 15 16 13 11 10 11 15 16 16 15 12 11 13 14 15 15 15 15 14 14 14 12 14 15 14 14 15 15 14 13 12
4 3 2 4 7 6 7 4 1 6 5 10 11 10 4 5 5 12 15 15 16 12 9 13 14 14 15 15 14 12 12 12 14 14 14 14 13 13 12 11 13 13 12 12 13 14 14 12 12
3 3 2 7 6 4 8 3 2 3 5 12 7 5 6 5 8 9 11 13 11 15 12 11 13 12 12 13 14 12 12 12 13 13 13 14 13 12 12 12 11 10 10 12 15 14 13 14 14
6 4 6 4 4 5 6 5 3 3 4 7 10 6 4 2 2 6 5 5 8 10 12 11 12 14 14 12 11 12 11 11 11 12 12 12 12 12 13 11 11 10 10 13 15 14 15 13 15
5 4 3 5 5 9 4 3 1 2 6 7 3 7 9 4 9 7 7 6 5 4 5 8 10 10 10 9 11 12 11 11 11 12 12 11 11 12 12 11 11 12 12 12 14 14 14 14 11
5 0 3 6 5 7 3 4 1 4 4 7 6 3 7 7 7 7 6 4 4 3 4 5 10 8 9 8 8 10 11 12 12 11 11 10 5 7 9 9 12 13 12 12 13 12 12 9 10
5 4 9 6 4 6 15 4 14 3 7 8 8 9 10 6 4 7 6 6 4 6 6 6 7 8 6 6 7 6 6 5 5 7 6 5 6 5 7 9 13 13 11 10 9 10 9 8 5
5 7 5 5 6 4 6 14 7 4 11 11 9 7 6 5 2 5 5 10 17 13 7 10 10 10 10 8 8 6 4 4 4 8 7 5 4 4 4 4 6 6 9 4 5 5 4 5 5
5 6 5 5 6 7 9 12 13 10 11 11 12 9 4 8 7 8 8 9 7 9 13 11 10 11 11 7 9 9 7 6 6 6 6 5 4 4 5 5 6 6 4 5 4 2 4 5 5
6 8 9 9 11 10 13 13 14 17 13 11 10 9 10 9 10 9 9 11 8 7 9 12 11 12 11 10 8 10 11 8 8 8 6 6 6 6 6 5 6 7 5 6 5 4 4 5 6
5 5 8 6 9 7 9 10 3 5 11 9 8 10 11 10 12 9 9 9 11 14 11 10 13 13 11 11 11 9 10 10 9 8 7 8 7 7 7 6 7 6 6 5 7 6 5 4 4
6 7 5 5 6 8 8 7 9 9 9 10 8 10 11 11 11 12 12 13 11 14 18 13 15 13 13 13 12 9 8 8 8 8 8 10 8 8 8 7 6 5 5 6 4 4 4 2 2
4 2 4 3 2 6 4 14 6 9 4 10 11 10 10 12 10 11 11 11 13 9 15 16 14 15 15 13 11 9 8 8 8 8 8 10 10 9 7 7 7 5 6 6 6 5 6 5 3
2 6 5 6 4 6 6 14 4 7 8 9 10 11 11 12 13 11 11 10 10 13 13 18 18 18 18 14 10 10 12 9 7 7 8 11 11 10 8 7 6 8 7 7 7 5 6 6 6
5 4 4 4 5 2 10 22 10 9 9 11 10 11 13 15 15 15 14 11 10 10 12 16 15 18 18 12 8 6 7 7 7 7 8 12 9 11 8 6 8 8 7 7 7 8 5 5 6
3 5 10 7 11 4 13 22 17 12 6 9 11 12 14 15 16 13 13 12 10 8 8 14 15 16 12 10 11 9 10 9 8 8 11 12 10 10 9 6 8 8 8 9 10 7 9 5 7
7 8 11 8 12 5 11 22 18 9 8 10 13 12 14 15 14 12 12 11 10 13 10 13 16 15 15 12 12 7 10 8 9 7 9 10 10 10 9 9 8 9 7 9 10 9 5 4 8
8 6 8 11 9 6 7 20 10 6 8 12 12 11 7 8 10 11 13 12 9 9 7 10 14 17 17 16 9 4 7 4 3 6 7 9 11 10 10 9 9 9 9 8 10 10 10 7 7
11 8 14 14 6 8 8 13 24 10 5 9 14 9 8 9 11 12 13 15 14 14 13 11 14 16 16 16 15 16 15 12 10 10 8 7 10 10 10 9 10 10 8 9 9 9 10 9 9
8 9 10 11 4 4 9 3 16 14 17 8 9 8 7 10 11 12 15 15 13 14 15 15 11 17 18 18 18 16 13 9 7 7 9 8 8 9 9 10 10 10 8 9 10 10 10 8 7
8 4 4 3 2 4 19 7 16 10 5 4 8 10 11 12 11 11 12 15 15 15 16 16 10 14 17 18 18 18 17 12 11 11 11 9 7 7 9 10 10 8 8 8 9 9 9 7 4
7 3 3 4 1 9 5 2 8 5 3 1 7 9 11 13 16 17 18 17 17 18 19 16 15 11 14 16 15 15 14 14 15 14 11 10 7 5 9 9 8 7 7 9 11 9 9 9 8
6 4 4 4 3 5 3 7 5 4 4 7 5 8 13 16 16 17 15 15 17 18 19 19 18 5 11 13 13 10 11 9 9 10 10 9 9 7 7 8 6 6 8 9 8 7 8 10 11
5 2 2 5 1 3 5 5 1 3 4 2 5 10 13 15 17 18 19 17 17 17 18 18 17 3 8 10 7 9 10 11 11 11 10 8 7 7 8 9 9 8 6 6 5 4 6 7 9
5 5 4 2 4 6 5 6 6 4 6 5 7 11 14 15 16 17 16 17 17 16 16 16 15 14 4 5 7 6 6 8 9 10 11 10 8 8 9 7 6 6 6 6 5 4 5 7 9
5 2 3 2 4 4 5 5 2 6 8 7 9 13 12 13 14 15 15 15 15 15 14 14 14 15 12 7 5 9 5 3 8 8 9 9 9 9 8 7 6 5 4 4 3 6 8 9 10
5 3 2 3 3 3 4 5 4 7 9 10 12 12 11 14 14 13 14 15 16 17 17 15 15 14 12 9 4 9 10 7 6 8 9 10 9 8 9 8 6 5 4 4 4 5 5 8 9
Wind_Direction
103 19 35 45 63 62 268 260 258 290 327 242 321 258 234 224 177 214 335 156 134 147 156 166 164 162 158 152 147 134 130 130 129 125 127 124 128 130 134 136 138 142 143 147 145 137 137 131 131
132 126 43 81 102 133 260 234 249 226 262 322 321 278 261 265 266 101 119 171 160 153 159 168 163 158 155 156 160 142 138 137 134 132 135 136 141 138 140 141 141 143 144 149 147 139 141 138 135
165 73 97 132 162 204 228 221 237 280 304 287 299 273 260 211 241 171 161 146 138 154 163 166 161 158 155 157 164 153 145 143 141 141 144 144 149 147 145 153 147 147 150 153 151 144 135 132 139
23 13 29 125 225 260 228 196 1 345 317 265 253 297 304 204 168 190 145 145 147 157 163 163 158 157 156 157 165 163 154 149 146 146 148 149 154 153 153 157 151 148 160 161 153 145 141 144 141
44 47 103 230 244 248 259 258 83 301 272 297 302 272 265 282 96 133 145 151 154 160 159 160 159 160 158 161 166 167 161 158 151 151 152 155 160 156 156 163 160 165 166 164 145 145 146 143 144
57 100 79 239 249 238 254 237 199 250 281 290 319 261 233 296 128 156 153 162 165 159 155 157 158 156 160 168 167 170 166 167 159 158 160 162 164 160 164 170 171 170 162 148 143 149 150 154 151
132 107 218 211 254 283 263 214 222 254 304 299 300 279 292 83 65 136 133 140 151 155 153 157 165 167 166 171 171 166 168 170 168 166 167 167 168 166 170 175 179 168 159 152 160 162 156 164 158
124 121 223 224 223 269 263 353 44 306 284 295 22 348 306 224 122 93 79 81 82 104 142 157 165 165 164 170 172 168 168 173 177 175 174 171 173 171 175 172 173 166 165 161 163 169 169 175 162
146 267 207 217 193 259 317 360 348 336 297 329 300 280 285 11 99 87 103 88 98 118 150 159 169 174 160 154 169 166 170 178 183 184 179 169 170 176 177 163 172 166 164 168 173 172 164 152 149
164 177 219 209 218 267 297 301 299 284 304 294 303 320 339 65 335 150 165 170 181 187 186 181 171 165 154 158 157 156 169 173 186 191 178 160 167 169 164 165 170 160 159 165 159 159 154 136 131
203 226 219 242 268 267 275 293 264 256 278 254 263 270 283 316 253 316 250 189 193 200 180 190 178 169 164 168 166 171 172 171 179 197 180 165 155 160 152 149 173 171 159 164 173 155 159 150 149
259 239 240 264 252 274 260 272 281 260 257 260 263 248 263 247 257 206 239 277 225 184 199 191 186 181 178 165 173 176 174 178 187 197 176 163 166 169 161 167 173 172 169 165 154 162 173 153 144
216 252 255 247 260 262 269 259 256 280 274 257 264 278 252 239 248 266 213 216 223 257 222 201 185 189 182 175 172 178 186 182 194 191 184 170 176 182 169 171 171 177 166 169 167 161 185 163 158
248 244 276 264 255 254 258 260 219 269 277 259 261 263 263 238 219 247 261 225 223 215 215 213 197 194 181 186 176 181 188 185 184 186 183 182 173 181 180 174 173 172 174 166 172 178 176 158 142
260 294 291 242 225 236 258 260 233 250 275 298 261 262 261 246 265 225 219 235 205 217 218 195 201 193 187 189 188 175 191 181 185 180 173 181 176 183 175 177 173 170 158 140 142 162 142 134 144
337 292 302 294 21 281 230 273 298 275 339 303 299 300 288 283 252 253 249 219 227 210 209 206 199 193 196 190 185 176 183 193 188 182 175 181 178 180 173 185 183 153 162 165 168 185 159 149 182
321 259 256 299 271 258 231 294 245 313 304 277 286 291 288 290 287 273 251 246 225 216 210 207 199 191 194 193 182 187 183 184 189 179 180 183 178 179 174 185 183 179 173 177 174 179 190 182 183
237 262 253 239 291 298 288 284 269 259 263 275 283 285 287 286 272 272 272 261 237 221 206 209 201 199 193 187 173 173 177 191 172 183 190 178 179 178 174 173 178 175 175 188 178 180 181 197 190
242 268 270 273 264 287 282 281 288 289 247 263 265 265 272 269 275 266 259 262 247 243 196 203 198 198 193 181 181 182 187 185 183 189 181 179 175 174 176 173 178 181 182 193 185 176 176 177 168
238 257 274 272 255 213 263 274 282 276 257 252 274 275 268 272 284 288 289 273 247 239 200 200 197 189 189 191 190 190 185 189 184 173 178 180 175 175 172 172 182 178 176 183 185 174 164 172 170
244 222 257 259 291 252 285 279 282 282 276 284 284 272 305 345 343 348 355 4 359 330 292 201 201 188 189 191 175 103 104 92 131 170 182 184 176 177 177 171 177 181 185 182 187 180 178 176 182
262 236 253 267 270 261 179 287 296 293 307 314 321 345 16 358 354 350 348 349 344 338 320 281 199 190 194 183 178 175 178 179 195 193 181 175 173 175 165 169 179 180 189 184 188 186 190 189 195
254 229 259 266 243 316 253 146 278 320 312 329 346 18 13 347 353 346 351 343 337 339 326 309 233 200 188 186 186 183 185 186 159 153 146 166 170 172 168 171 178 180 187 195 187 192 199 193 192
263 267 244 34 87 269 286 168 279 296 330 7 359 11 2 351 347 348 357 340 332 347 337 323 297 202 190 189 186 189 182 165 154 158 161 173 169 168 172 175 183 177 180 204 197 189 197 198 203
14 65 325 315 341 249 34 316 246 7 25 82 8 351 353 1 357 349 16 339 333 349 333 331 322 199 188 185 190 189 180 173 165 160 162 170 171 174 178 175 181 177 183 206 199 181 184 192 198
297 176 183 263 213 260 17 254 254 106 66 65 58 19 1 4 2 346 0 330 347 343 325 334 333 221 181 182 175 175 167 172 167 171 159 172 180 187 162 176 173 186 191 200 186 184 198 197 207
302 345 248 273 300 287 234 280 147 142 32 47 27 51 18 356 354 345 355 339 341 332 333 330 329 252 183 171 164 158 169 174 173 160 153 166 167 176 179 191 191 180 155 177 160 190 205 209 218
81 282 351 13 265 238 260 244 235 8 341 320 27 33 18 355 349 342 340 345 340 332 331 331 341 352 26 132 155 172 182 176 159 151 158 159 149 151 158 158 154 153 161 190 163 211 240 236 231
341 313 293 179 256 280 279 260 3 44 1 335 31 31 16 357 353 340 338 339 335 331 337 341 356 4 360 332 129 102 81 209 151 154 149 155 146 151 151 148 161 168 146 191 187 231 244 240 247
219 58 346 144 275 270 269 267 83 84 56 41 22 8 10 6 352 346 343 342 348 344 345 350 356 1 340 324 246 140 146 153 164 157 151 141 152 149 162 154 149 159 175 198 208 238 235 236 241